QPF
0.14 0.18 0.22 0.31 0.39 0.42 0.47 0.45 0.29 0.17 0.12 0.09 0.09 0.08 0.07 0.07 0.06 0.03 0.02 0.02 0.02 0.03 0.04 0.02 0.01 0.00 0.00 0.01 0.02 0.01 0.01 0.01 0.01 0.01 0.01 0.01 0.00 0.00 0.01 0.01 0.00 0.01 0.01
0.14 0.28 0.27 0.27 0.36 0.37 0.36 0.37 0.32 0.22 0.14 0.10 0.07 0.06 0.06 0.06 0.04 0.03 0.01 0.01 0.02 0.04 0.03 0.02 0.01 0.00 0.00 0.01 0.02 0.02 0.02 0.01 0.00 0.00 0.00 0.00 0.00 0.00 0.00 0.00 0.00 0.00 0.01
0.15 0.25 0.34 0.29 0.32 0.36 0.27 0.19 0.23 0.20 0.15 0.12 0.09 0.07 0.07 0.06 0.04 0.03 0.01 0.02 0.03 0.03 0.02 0.01 0.00 0.00 0.00 0.01 0.02 0.02 0.01 0.00 0.00 0.00 0.00 0.00 0.00 0.00 0.00 0.00 0.00 0.00 0.00
0.12 0.12 0.19 0.24 0.26 0.25 0.21 0.15 0.19 0.19 0.11 0.09 0.08 0.06 0.04 0.03 0.03 0.03 0.03 0.04 0.04 0.03 0.02 0.01 0.00 0.00 0.00 0.00 0.01 0.02 0.01 0.00 0.00 0.00 0.00 0.00 0.00 0.00 0.00 0.00 0.00 0.00 0.00
0.06 0.08 0.09 0.14 0.15 0.16 0.16 0.14 0.17 0.17 0.11 0.09 0.08 0.07 0.05 0.03 0.03 0.03 0.02 0.03 0.02 0.02 0.01 0.01 0.00 0.00 0.00 0.00 0.01 0.01 0.01 0.00 0.00 0.00 0.00 0.00 0.00 0.00 0.00 0.00 0.00 0.00 0.00
0.05 0.06 0.08 0.10 0.11 0.11 0.11 0.11 0.14 0.15 0.10 0.08 0.08 0.06 0.06 0.05 0.04 0.03 0.02 0.02 0.01 0.01 0.01 0.01 0.00 0.00 0.00 0.01 0.01 0.01 0.00 0.00 0.00 0.00 0.00 0.00 0.00 0.00 0.00 0.00 0.00 0.00 0.00
0.05 0.05 0.05 0.05 0.04 0.04 0.06 0.07 0.09 0.10 0.09 0.08 0.06 0.05 0.04 0.05 0.05 0.05 0.03 0.02 0.01 0.01 0.00 0.00 0.00 0.00 0.00 0.00 0.01 0.01 0.00 0.00 0.00 0.00 0.00 0.00 0.00 0.00 0.00 0.00 0.00 0.00 0.00
0.02 0.02 0.02 0.03 0.02 0.03 0.04 0.05 0.05 0.06 0.08 0.06 0.04 0.02 0.03 0.03 0.03 0.03 0.02 0.01 0.01 0.01 0.00 0.00 0.00 0.00 0.00 0.00 0.01 0.01 0.00 0.00 0.00 0.00 0.00 0.00 0.00 0.00 0.00 0.00 0.00 0.00 0.00
0.01 0.01 0.02 0.02 0.02 0.02 0.03 0.03 0.03 0.04 0.05 0.03 0.02 0.02 0.01 0.02 0.01 0.01 0.01 0.01 0.01 0.00 0.00 0.00 0.00 0.00 0.00 0.00 0.00 0.00 0.00 0.00 0.00 0.00 0.00 0.00 0.00 0.00 0.00 0.00 0.00 0.00 0.00
0.02 0.02 0.02 0.01 0.01 0.02 0.02 0.02 0.02 0.02 0.02 0.01 0.01 0.01 0.01 0.01 0.01 0.01 0.01 0.00 0.00 0.00 0.02 0.01 0.00 0.00 0.00 0.00 0.00 0.00 0.00 0.00 0.00 0.00 0.00 0.00 0.00 0.00 0.00 0.00 0.00 0.00 0.00
0.02 0.01 0.01 0.01 0.01 0.01 0.02 0.02 0.02 0.02 0.03 0.03 0.02 0.01 0.01 0.01 0.01 0.01 0.00 0.00 0.00 0.01 0.02 0.01 0.01 0.00 0.00 0.00 0.00 0.00 0.00 0.00 0.00 0.00 0.00 0.00 0.00 0.00 0.00 0.00 0.00 0.00 0.00
0.03 0.03 0.02 0.02 0.02 0.01 0.01 0.01 0.01 0.01 0.01 0.02 0.02 0.01 0.01 0.01 0.01 0.01 0.01 0.01 0.01 0.02 0.02 0.01 0.01 0.01 0.00 0.00 0.00 0.00 0.00 0.00 0.00 0.00 0.00 0.00 0.00 0.00 0.00 0.00 0.00 0.00 0.00
0.03 0.05 0.04 0.02 0.01 0.01 0.01 0.00 0.00 0.00 0.00 0.01 0.01 0.01 0.01 0.01 0.01 0.01 0.01 0.01 0.01 0.01 0.01 0.01 0.01 0.01 0.01 0.01 0.01 0.01 0.01 0.00 0.00 0.01 0.00 0.01 0.01 0.01 0.01 0.01 0.00 0.00 0.00
0.03 0.04 0.02 0.01 0.01 0.01 0.01 0.01 0.00 0.00 0.01 0.01 0.01 0.01 0.01 0.01 0.02 0.02 0.02 0.02 0.02 0.02 0.01 0.01 0.01 0.01 0.01 0.01 0.01 0.01 0.01 0.01 0.01 0.01 0.01 0.01 0.01 0.01 0.01 0.01 0.01 0.00 0.00
0.02 0.02 0.01 0.01 0.01 0.01 0.01 0.01 0.01 0.01 0.01 0.01 0.01 0.01 0.02 0.02 0.02 0.03 0.03 0.02 0.03 0.02 0.02 0.02 0.01 0.01 0.01 0.01 0.01 0.01 0.00 0.00 0.00 0.00 0.00 0.00 0.01 0.01 0.00 0.00 0.00 0.00 0.00
0.02 0.02 0.02 0.01 0.01 0.01 0.01 0.01 0.01 0.00 0.01 0.01 0.02 0.02 0.02 0.03 0.02 0.03 0.04 0.03 0.03 0.03 0.02 0.01 0.01 0.00 0.00 0.00 0.00 0.00 0.00 0.00 0.00 0.00 0.00 0.00 0.00 0.00 0.00 0.00 0.00 0.00 0.00
0.05 0.02 0.02 0.02 0.01 0.01 0.02 0.02 0.01 0.02 0.02 0.03 0.03 0.03 0.03 0.03 0.03 0.03 0.03 0.03 0.03 0.03 0.02 0.01 0.01 0.00 0.00 0.00 0.00 0.00 0.00 0.00 0.00 0.00 0.00 0.00 0.00 0.00 0.00 0.00 0.00 0.00 0.00
0.08 0.04 0.04 0.03 0.03 0.03 0.04 0.06 0.06 0.07 0.07 0.07 0.08 0.09 0.09 0.07 0.05 0.05 0.04 0.04 0.05 0.05 0.04 0.02 0.02 0.01 0.01 0.01 0.01 0.01 0.01 0.01 0.01 0.00 0.00 0.00 0.00 0.00 0.00 0.00 0.00 0.00 0.00
0.09 0.08 0.06 0.06 0.06 0.05 0.05 0.07 0.08 0.10 0.12 0.14 0.16 0.17 0.18 0.17 0.16 0.15 0.10 0.10 0.10 0.09 0.07 0.05 0.04 0.03 0.02 0.03 0.03 0.03 0.02 0.02 0.01 0.01 0.01 0.01 0.00 0.01 0.01 0.01 0.01 0.01 0.00
0.08 0.08 0.06 0.07 0.07 0.07 0.08 0.10 0.09 0.10 0.11 0.15 0.21 0.26 0.28 0.26 0.25 0.25 0.20 0.15 0.12 0.12 0.10 0.09 0.07 0.06 0.06 0.07 0.07 0.08 0.08 0.05 0.03 0.02 0.02 0.02 0.02 0.02 0.02 0.01 0.01 0.01 0.01
0.12 0.09 0.08 0.10 0.09 0.10 0.12 0.14 0.16 0.18 0.19 0.20 0.20 0.21 0.25 0.25 0.26 0.26 0.21 0.17 0.15 0.15 0.15 0.13 0.12 0.11 0.11 0.12 0.12 0.11 0.08 0.06 0.04 0.03 0.02 0.03 0.03 0.03 0.03 0.02 0.02 0.01 0.01
0.15 0.15 0.13 0.16 0.18 0.18 0.18 0.21 0.23 0.20 0.21 0.21 0.18 0.16 0.16 0.17 0.18 0.20 0.20 0.17 0.15 0.15 0.16 0.15 0.12 0.11 0.11 0.11 0.09 0.07 0.06 0.07 0.07 0.06 0.05 0.05 0.05 0.03 0.02 0.01 0.01 0.01 0.01
0.08 0.09 0.10 0.15 0.18 0.22 0.23 0.24 0.22 0.20 0.20 0.23 0.24 0.24 0.22 0.22 0.20 0.17 0.15 0.14 0.13 0.12 0.12 0.12 0.11 0.09 0.09 0.09 0.08 0.07 0.07 0.08 0.08 0.06 0.05 0.05 0.04 0.03 0.02 0.02 0.02 0.02 0.01
0.03 0.05 0.07 0.10 0.11 0.14 0.17 0.19 0.21 0.23 0.25 0.29 0.29 0.28 0.28 0.25 0.22 0.20 0.19 0.18 0.17 0.16 0.13 0.11 0.09 0.07 0.06 0.05 0.05 0.05 0.07 0.08 0.08 0.08 0.07 0.05 0.04 0.02 0.01 0.01 0.01 0.01 0.01
0.02 0.03 0.05 0.07 0.09 0.10 0.11 0.13 0.14 0.16 0.18 0.21 0.21 0.20 0.21 0.20 0.18 0.16 0.16 0.17 0.17 0.16 0.13 0.10 0.08 0.07 0.06 0.05 0.05 0.05 0.06 0.07 0.07 0.07 0.05 0.04 0.03 0.02 0.02 0.01 0.01 0.01 0.01
0.02 0.03 0.04 0.06 0.08 0.10 0.12 0.15 0.16 0.17 0.17 0.16 0.16 0.15 0.15 0.15 0.15 0.16 0.18 0.19 0.19 0.20 0.20 0.18 0.15 0.13 0.11 0.10 0.08 0.07 0.07 0.07 0.06 0.05 0.03 0.02 0.02 0.02 0.01 0.01 0.01 0.01 0.01
MSLP
1009.69 1009.81 1009.84 1009.81 1009.76 1009.76 1009.88 1010.17 1010.65 1011.30 1012.08 1012.89 1013.67 1014.33 1014.82 1015.12 1015.26 1015.27 1015.24 1015.21 1015.26 1015.42 1015.69 1016.06 1016.50 1016.95 1017.40 1017.80 1018.15 1018.44 1018.70 1018.92 1019.11 1019.29 1019.43 1019.53 1019.57 1019.53 1019.42 1019.26 1019.07 1018.88 1018.73
1010.05 1010.29 1010.43 1010.46 1010.42 1010.39 1010.45 1010.65 1011.06 1011.64 1012.36 1013.14 1013.90 1014.54 1015.02 1015.28 1015.37 1015.33 1015.23 1015.16 1015.16 1015.30 1015.57 1015.96 1016.42 1016.90 1017.37 1017.78 1018.13 1018.42 1018.67 1018.90 1019.12 1019.33 1019.53 1019.68 1019.78 1019.80 1019.72 1019.57 1019.37 1019.15 1018.95
1010.34 1010.71 1010.95 1011.06 1011.07 1011.03 1011.04 1011.18 1011.49 1011.99 1012.65 1013.38 1014.09 1014.70 1015.15 1015.39 1015.45 1015.38 1015.25 1015.15 1015.14 1015.27 1015.55 1015.95 1016.42 1016.91 1017.37 1017.78 1018.11 1018.38 1018.62 1018.85 1019.09 1019.34 1019.59 1019.82 1019.99 1020.08 1020.07 1019.96 1019.77 1019.54 1019.31
1010.51 1010.99 1011.35 1011.55 1011.61 1011.58 1011.56 1011.63 1011.87 1012.28 1012.85 1013.50 1014.17 1014.74 1015.17 1015.40 1015.46 1015.39 1015.27 1015.17 1015.18 1015.32 1015.61 1016.02 1016.50 1016.98 1017.43 1017.81 1018.12 1018.36 1018.58 1018.80 1019.06 1019.35 1019.65 1019.96 1020.21 1020.38 1020.44 1020.38 1020.22 1020.00 1019.76
1010.57 1011.13 1011.59 1011.87 1011.99 1011.99 1011.95 1011.96 1012.11 1012.43 1012.91 1013.48 1014.09 1014.63 1015.04 1015.28 1015.37 1015.33 1015.25 1015.20 1015.24 1015.42 1015.72 1016.15 1016.62 1017.10 1017.53 1017.88 1018.16 1018.37 1018.57 1018.78 1019.04 1019.36 1019.72 1020.08 1020.41 1020.65 1020.79 1020.79 1020.68 1020.48 1020.23
1010.51 1011.14 1011.67 1012.04 1012.21 1012.23 1012.17 1012.14 1012.21 1012.44 1012.82 1013.31 1013.86 1014.36 1014.77 1015.04 1015.17 1015.20 1015.18 1015.19 1015.29 1015.51 1015.85 1016.29 1016.77 1017.23 1017.64 1017.97 1018.22 1018.42 1018.59 1018.80 1019.06 1019.39 1019.77 1020.18 1020.56 1020.87 1021.07 1021.13 1021.06 1020.89 1020.65
1010.35 1011.03 1011.63 1012.05 1012.28 1012.32 1012.26 1012.18 1012.18 1012.32 1012.61 1013.03 1013.51 1013.99 1014.41 1014.71 1014.90 1015.00 1015.06 1015.15 1015.31 1015.58 1015.95 1016.41 1016.89 1017.35 1017.75 1018.07 1018.30 1018.48 1018.64 1018.83 1019.09 1019.42 1019.82 1020.24 1020.66 1021.01 1021.25 1021.36 1021.33 1021.19 1020.96
1010.13 1010.84 1011.48 1011.96 1012.22 1012.29 1012.23 1012.12 1012.07 1012.13 1012.35 1012.69 1013.12 1013.58 1014.00 1014.34 1014.58 1014.76 1014.90 1015.06 1015.29 1015.60 1016.01 1016.47 1016.96 1017.42 1017.82 1018.13 1018.36 1018.54 1018.70 1018.89 1019.13 1019.45 1019.83 1020.25 1020.67 1021.03 1021.30 1021.44 1021.45 1021.34 1021.13
1009.84 1010.58 1011.26 1011.78 1012.08 1012.17 1012.11 1011.99 1011.90 1011.92 1012.07 1012.37 1012.76 1013.19 1013.62 1013.98 1014.28 1014.51 1014.72 1014.94 1015.22 1015.57 1015.99 1016.47 1016.96 1017.43 1017.83 1018.15 1018.40 1018.58 1018.74 1018.92 1019.16 1019.45 1019.81 1020.20 1020.59 1020.94 1021.21 1021.37 1021.41 1021.34 1021.17
1009.49 1010.24 1010.95 1011.50 1011.83 1011.95 1011.91 1011.80 1011.70 1011.70 1011.82 1012.08 1012.45 1012.87 1013.30 1013.69 1014.02 1014.30 1014.55 1014.81 1015.12 1015.48 1015.92 1016.40 1016.89 1017.36 1017.77 1018.11 1018.37 1018.58 1018.75 1018.93 1019.14 1019.41 1019.73 1020.08 1020.43 1020.76 1021.02 1021.19 1021.25 1021.22 1021.09
1009.05 1009.82 1010.53 1011.10 1011.46 1011.61 1011.61 1011.53 1011.45 1011.46 1011.58 1011.84 1012.20 1012.62 1013.05 1013.45 1013.81 1014.12 1014.39 1014.68 1014.99 1015.36 1015.78 1016.25 1016.74 1017.21 1017.63 1017.99 1018.28 1018.51 1018.70 1018.88 1019.07 1019.31 1019.58 1019.88 1020.19 1020.48 1020.73 1020.90 1021.00 1021.01 1020.93
1008.50 1009.26 1009.97 1010.54 1010.91 1011.10 1011.15 1011.12 1011.09 1011.14 1011.30 1011.58 1011.95 1012.38 1012.83 1013.24 1013.62 1013.94 1014.23 1014.52 1014.84 1015.19 1015.60 1016.05 1016.53 1016.99 1017.42 1017.79 1018.10 1018.35 1018.55 1018.74 1018.92 1019.13 1019.36 1019.61 1019.88 1020.13 1020.37 1020.55 1020.68 1020.74 1020.73
1007.84 1008.55 1009.23 1009.77 1010.16 1010.38 1010.47 1010.51 1010.56 1010.68 1010.90 1011.23 1011.63 1012.09 1012.56 1013.00 1013.39 1013.73 1014.03 1014.33 1014.64 1014.98 1015.37 1015.80 1016.25 1016.70 1017.12 1017.50 1017.82 1018.08 1018.30 1018.49 1018.66 1018.85 1019.04 1019.26 1019.49 1019.72 1019.94 1020.14 1020.30 1020.42 1020.47
1007.06 1007.70 1008.31 1008.81 1009.18 1009.42 1009.57 1009.69 1009.83 1010.03 1010.33 1010.71 1011.17 1011.67 1012.18 1012.64 1013.06 1013.43 1013.75 1014.06 1014.37 1014.71 1015.08 1015.49 1015.92 1016.34 1016.75 1017.12 1017.44 1017.71 1017.93 1018.12 1018.29 1018.46 1018.63 1018.82 1019.02 1019.24 1019.45 1019.66 1019.86 1020.02 1020.14
1006.21 1006.75 1007.26 1007.70 1008.03 1008.29 1008.48 1008.67 1008.89 1009.18 1009.56 1010.02 1010.54 1011.09 1011.63 1012.14 1012.60 1013.01 1013.36 1013.70 1014.03 1014.37 1014.73 1015.12 1015.52 1015.92 1016.30 1016.65 1016.96 1017.22 1017.44 1017.63 1017.79 1017.95 1018.12 1018.29 1018.48 1018.68 1018.89 1019.11 1019.32 1019.51 1019.68
1005.37 1005.78 1006.18 1006.53 1006.82 1007.07 1007.30 1007.54 1007.84 1008.21 1008.66 1009.18 1009.75 1010.35 1010.94 1011.50 1012.00 1012.45 1012.86 1013.23 1013.59 1013.95 1014.31 1014.69 1015.06 1015.43 1015.78 1016.10 1016.39 1016.63 1016.84 1017.03 1017.20 1017.36 1017.52 1017.68 1017.86 1018.05 1018.25 1018.47 1018.68 1018.89 1019.08
1004.64 1004.92 1005.19 1005.46 1005.70 1005.93 1006.17 1006.46 1006.80 1007.23 1007.73 1008.29 1008.90 1009.53 1010.16 1010.75 1011.31 1011.81 1012.27 1012.69 1013.08 1013.46 1013.84 1014.20 1014.55 1014.89 1015.20 1015.49 1015.75 1015.98 1016.18 1016.36 1016.54 1016.70 1016.87 1017.03 1017.20 1017.38 1017.56 1017.76 1017.95 1018.14 1018.32
1004.11 1004.28 1004.46 1004.64 1004.84 1005.05 1005.30 1005.60 1005.97 1006.41 1006.92 1007.50 1008.12 1008.76 1009.39 1010.01 1010.59 1011.14 1011.64 1012.11 1012.54 1012.94 1013.32 1013.68 1014.01 1014.32 1014.60 1014.85 1015.08 1015.30 1015.50 1015.69 1015.87 1016.05 1016.23 1016.39 1016.56 1016.72 1016.87 1017.02 1017.17 1017.31 1017.45
1003.89 1003.98 1004.10 1004.23 1004.39 1004.59 1004.82 1005.12 1005.48 1005.91 1006.40 1006.95 1007.54 1008.15 1008.77 1009.37 1009.96 1010.52 1011.05 1011.54 1012.00 1012.42 1012.81 1013.15 1013.46 1013.74 1013.99 1014.22 1014.44 1014.65 1014.85 1015.06 1015.27 1015.47 1015.66 1015.83 1015.98 1016.12 1016.22 1016.32 1016.39 1016.47 1016.53
1004.01 1004.08 1004.17 1004.29 1004.43 1004.62 1004.84 1005.11 1005.44 1005.83 1006.26 1006.74 1007.26 1007.80 1008.37 1008.93 1009.49 1010.04 1010.56 1011.06 1011.51 1011.93 1012.31 1012.64 1012.93 1013.18 1013.41 1013.63 1013.85 1014.06 1014.29 1014.52 1014.76 1014.99 1015.20 1015.38 1015.52 1015.62 1015.68 1015.70 1015.70 1015.68 1015.66
1004.47 1004.56 1004.67 1004.80 1004.96 1005.14 1005.35 1005.59 1005.86 1006.17 1006.52 1006.90 1007.32 1007.77 1008.24 1008.72 1009.22 1009.72 1010.20 1010.67 1011.10 1011.49 1011.85 1012.15 1012.42 1012.66 1012.88 1013.10 1013.32 1013.57 1013.83 1014.10 1014.38 1014.64 1014.87 1015.06 1015.19 1015.26 1015.26 1015.22 1015.13 1015.02 1014.90
1005.22 1005.37 1005.53 1005.70 1005.87 1006.06 1006.25 1006.45 1006.66 1006.88 1007.12 1007.39 1007.68 1008.01 1008.36 1008.74 1009.15 1009.56 1009.98 1010.38 1010.77 1011.11 1011.42 1011.70 1011.94 1012.17 1012.39 1012.62 1012.87 1013.15 1013.45 1013.77 1014.09 1014.39 1014.65 1014.84 1014.96 1015.00 1014.96 1014.85 1014.68 1014.49 1014.28
1006.17 1006.39 1006.62 1006.83 1007.03 1007.22 1007.39 1007.54 1007.68 1007.81 1007.94 1008.09 1008.25 1008.45 1008.67 1008.94 1009.23 1009.54 1009.87 1010.19 1010.49 1010.78 1011.04 1011.27 1011.49 1011.70 1011.93 1012.18 1012.46 1012.78 1013.13 1013.50 1013.86 1014.19 1014.46 1014.66 1014.77 1014.78 1014.70 1014.54 1014.32 1014.06 1013.79
1007.22 1007.51 1007.79 1008.05 1008.27 1008.45 1008.59 1008.69 1008.76 1008.80 1008.83 1008.86 1008.91 1008.98 1009.08 1009.23 1009.40 1009.61 1009.82 1010.05 1010.27 1010.48 1010.67 1010.86 1011.05 1011.25 1011.48 1011.75 1012.07 1012.42 1012.81 1013.21 1013.60 1013.95 1014.23 1014.43 1014.52 1014.51 1014.40 1014.21 1013.95 1013.66 1013.36
1008.28 1008.61 1008.93 1009.20 1009.43 1009.59 1009.70 1009.75 1009.75 1009.71 1009.66 1009.59 1009.54 1009.51 1009.50 1009.54 1009.61 1009.71 1009.82 1009.95 1010.08 1010.21 1010.34 1010.48 1010.63 1010.82 1011.05 1011.33 1011.66 1012.04 1012.45 1012.86 1013.26 1013.61 1013.88 1014.06 1014.14 1014.11 1013.98 1013.77 1013.51 1013.21 1012.91
1009.27 1009.62 1009.94 1010.20 1010.41 1010.55 1010.61 1010.61 1010.56 1010.45 1010.33 1010.19 1010.07 1009.96 1009.88 1009.84 1009.82 1009.83 1009.85 1009.89 1009.93 1009.99 1010.05 1010.14 1010.26 1010.43 1010.64 1010.92 1011.25 1011.62 1012.02 1012.42 1012.80 1013.12 1013.36 1013.51 1013.56 1013.51 1013.37 1013.16 1012.91 1012.64 1012.36
Thickness
5752 5751 5747 5744 5740 5739 5738 5737 5736 5737 5737 5736 5735 5733 5733 5734 5735 5737 5737 5738 5737 5736 5735 5733 5731 5731 5728 5727 5726 5724 5722 5721 5721 5719 5716 5718 5720 5721 5720 5720 5720 5719 5718
5747 5745 5742 5740 5738 5736 5735 5735 5734 5734 5735 5736 5736 5735 5734 5733 5734 5734 5735 5736 5736 5735 5734 5732 5731 5730 5727 5725 5724 5723 5720 5719 5720 5715 5710 5706 5709 5714 5718 5717 5717 5717 5716
5746 5742 5739 5738 5737 5735 5734 5735 5732 5733 5734 5734 5734 5733 5731 5730 5729 5730 5731 5733 5734 5734 5733 5732 5730 5729 5727 5724 5723 5722 5719 5716 5717 5717 5711 5703 5700 5704 5710 5712 5713 5713 5713
5747 5742 5738 5736 5736 5736 5736 5735 5734 5734 5733 5733 5732 5731 5729 5727 5728 5730 5730 5732 5733 5732 5732 5731 5730 5728 5726 5724 5723 5722 5720 5717 5714 5714 5714 5712 5708 5702 5700 5705 5708 5710 5710
5748 5743 5740 5738 5737 5736 5735 5735 5734 5734 5733 5733 5732 5732 5730 5730 5729 5729 5729 5729 5730 5731 5730 5730 5729 5727 5725 5724 5723 5721 5719 5717 5714 5712 5711 5710 5707 5705 5700 5696 5699 5703 5706
5749 5745 5742 5739 5737 5737 5736 5735 5733 5732 5733 5733 5733 5732 5731 5730 5728 5727 5726 5726 5727 5728 5729 5729 5728 5726 5725 5723 5722 5720 5718 5716 5714 5712 5710 5708 5704 5701 5698 5695 5694 5694 5699
5749 5744 5742 5739 5737 5736 5735 5734 5732 5731 5732 5733 5733 5734 5733 5732 5729 5728 5726 5725 5725 5725 5727 5728 5727 5725 5724 5723 5721 5719 5717 5715 5713 5711 5709 5707 5705 5703 5699 5695 5691 5690 5692
5751 5748 5746 5744 5741 5739 5737 5735 5732 5731 5733 5733 5734 5735 5734 5733 5731 5730 5729 5727 5727 5727 5728 5727 5726 5724 5723 5721 5719 5717 5715 5713 5711 5710 5708 5705 5704 5703 5700 5696 5690 5685 5684
5754 5752 5750 5747 5745 5742 5740 5739 5735 5733 5733 5734 5734 5734 5734 5734 5732 5731 5730 5729 5728 5728 5727 5726 5724 5722 5721 5719 5717 5715 5713 5711 5709 5707 5706 5703 5702 5700 5699 5696 5692 5685 5678
5756 5754 5753 5751 5749 5747 5744 5741 5739 5737 5736 5735 5735 5735 5734 5734 5733 5731 5729 5729 5728 5728 5725 5724 5722 5720 5718 5717 5714 5712 5711 5708 5706 5705 5703 5700 5698 5697 5695 5693 5689 5686 5680
5759 5757 5756 5754 5752 5749 5746 5743 5740 5738 5737 5737 5736 5735 5734 5733 5732 5731 5730 5729 5728 5727 5725 5722 5720 5718 5716 5714 5712 5709 5708 5705 5703 5702 5699 5697 5695 5693 5691 5689 5686 5682 5678
5763 5762 5760 5756 5752 5750 5747 5745 5742 5740 5740 5739 5737 5735 5734 5732 5731 5730 5729 5729 5728 5726 5724 5722 5719 5716 5714 5712 5709 5707 5705 5702 5700 5698 5696 5694 5692 5689 5687 5684 5682 5679 5676
5763 5762 5760 5757 5754 5752 5750 5747 5745 5743 5742 5740 5737 5735 5733 5732 5730 5730 5729 5728 5727 5724 5722 5720 5717 5714 5712 5709 5707 5705 5702 5700 5698 5695 5692 5690 5688 5685 5682 5680 5677 5675 5673
5764 5761 5760 5758 5757 5755 5753 5750 5748 5746 5743 5740 5737 5734 5733 5732 5731 5729 5728 5726 5724 5722 5719 5717 5715 5712 5710 5707 5705 5702 5699 5697 5695 5693 5690 5688 5685 5682 5679 5676 5673 5670 5667
5762 5761 5759 5758 5757 5756 5754 5753 5750 5748 5745 5740 5737 5735 5734 5732 5730 5727 5726 5724 5721 5719 5717 5714 5711 5709 5706 5704 5701 5699 5696 5693 5690 5689 5687 5685 5683 5681 5677 5674 5669 5666 5662
5763 5762 5760 5759 5757 5757 5755 5754 5751 5749 5746 5742 5739 5737 5734 5731 5728 5726 5723 5721 5718 5715 5712 5710 5707 5704 5704 5702 5699 5696 5692 5689 5686 5684 5682 5681 5679 5677 5674 5672 5668 5664 5659
5762 5761 5761 5760 5759 5759 5758 5755 5753 5750 5745 5742 5739 5736 5733 5729 5727 5725 5720 5717 5715 5711 5708 5706 5703 5701 5700 5698 5695 5692 5688 5685 5682 5680 5677 5676 5676 5673 5670 5667 5665 5661 5659
5757 5759 5760 5760 5761 5761 5759 5757 5753 5748 5744 5740 5737 5734 5730 5727 5724 5720 5717 5715 5712 5708 5705 5702 5700 5697 5696 5693 5691 5688 5684 5680 5678 5676 5673 5670 5669 5667 5664 5661 5658 5656 5654
5754 5756 5759 5759 5759 5757 5756 5752 5748 5745 5741 5738 5735 5732 5729 5725 5720 5716 5714 5711 5707 5704 5701 5699 5696 5692 5691 5689 5686 5682 5677 5674 5672 5670 5668 5665 5663 5662 5658 5653 5650 5649 5649
5752 5753 5755 5754 5752 5752 5751 5746 5742 5739 5736 5735 5733 5730 5726 5722 5718 5714 5710 5707 5704 5701 5698 5695 5692 5688 5686 5684 5680 5675 5670 5666 5665 5663 5661 5660 5657 5655 5652 5647 5644 5641 5643
5743 5746 5746 5744 5742 5743 5742 5737 5734 5732 5732 5730 5726 5723 5721 5718 5715 5711 5707 5703 5699 5696 5692 5690 5687 5684 5681 5678 5674 5670 5665 5662 5658 5656 5654 5652 5650 5647 5645 5641 5638 5637 5636
5732 5735 5735 5733 5734 5734 5732 5728 5725 5725 5724 5722 5718 5716 5714 5712 5709 5704 5700 5697 5694 5689 5686 5682 5679 5677 5675 5673 5669 5665 5660 5657 5652 5650 5648 5645 5642 5639 5637 5633 5631 5629 5625
5719 5722 5723 5721 5721 5722 5722 5718 5716 5716 5715 5712 5708 5706 5704 5702 5701 5697 5692 5688 5685 5680 5677 5673 5671 5669 5667 5665 5662 5657 5653 5648 5644 5642 5640 5637 5633 5630 5627 5625 5622 5618 5615
5708 5710 5710 5708 5707 5708 5708 5707 5706 5705 5703 5700 5697 5695 5692 5691 5690 5687 5683 5679 5675 5671 5668 5665 5662 5659 5657 5654 5651 5648 5643 5639 5634 5631 5629 5626 5622 5619 5617 5614 5612 5609 5606
5697 5698 5697 5696 5695 5695 5694 5694 5694 5693 5690 5687 5685 5683 5681 5679 5677 5675 5673 5670 5667 5665 5661 5658 5654 5650 5646 5645 5642 5637 5633 5629 5625 5620 5615 5612 5609 5606 5604 5603 5601 5598 5595
5684 5684 5684 5684 5683 5682 5681 5681 5681 5680 5677 5675 5672 5671 5669 5667 5665 5663 5660 5659 5656 5655 5652 5649 5646 5642 5639 5635 5631 5626 5622 5617 5612 5606 5602 5600 5597 5595 5593 5591 5590 5587 5584